Barnstable Municipal Boardman Polando Field
KHYA : now visible

Airfield :











YOU CAN JOIN US ON...

 
LOGIN :

Register | Disclaimer

   EN    FR    IT 

 









Legend :    VFR   Marginal VFR   IFR   Intensive IFR   Very Intensive IFR
Visi :
Ceiling :
>= 8 km
>= 3000ft
5 to 8 km
1000 to 3000 ft
1500m to 5 km
500 to 1000 ft
800 to 1500m
200 to 500 ft
< 800m
< 200 ft
Symbols :   Thunderstorms  Fog  Heavy snow  Heavy precipitations  Wind > 20 kt






- Airport Elevation : 54 ft
- IATA code : HYA


KHYA - Barnstable Municipal Boardman Polando Field

CURRENT METAR :
  • 042356Z 28006KT 10SM CLR 01/M11 A2963 RMK AO2 SLP035 T00111111 10061 20011 51014

EXPIRED METARs :
  • 042256Z 28007KT 10SM CLR 02/M11 A2962 RMK AO2 SLP031 T00221106
  • 042156Z 29011KT 10SM CLR 03/M10 A2960 RMK AO2 SLP024 T00331100

TAF KHYA
Valid from the 05 at 00:00 until the 06 at 00:00 UTC


042321Z 0500/0524 29007KT P6SM SKC
FM050900 30014G30KT P6SM FEW250
KZBW FIR / North America



MET'MAP, your aeronautical weather chart ! - Copyright ORBIFLY December 2007 - Disclaimer

ORBIFLY MET'MAP TEAM :

Programming & Development : Alexandra Zaïnal
Concept & original design : Baudouin d'Aumeries
Assistance for programming : Marc-Olivier Méhu
Technical & hardware support : Manuel Goepfert

Contact : metmap@orbifly.com




SOURCES & CREDITS :

   NOAA       Earth
Advisory